KOSEN 1
1 49402U 21102H   25333.63227602  .00008225  00000-0  34873-3 0  9994
2 49402  97.3496  14.7972 0014540 185.6845 174.4229 15.23282380223606
HO-113
1 50466U 21131B   25333.87470199  .00000629  00000-0  20902-3 0  9993
2 50466  98.5062  62.3610 0003698 352.0144   8.0986 14.41083715206403
SNUGLITE 2
1 52899U 22065F   25333.67790547  .00001345  00000-0  26716-3 0  9997
2 52899  98.1920 114.2854 0006449 293.3362  66.7161 14.63775107181806
UmKA 1 (RS40S)
1 57172U 23091G   25333.82255824  .00007124  00000-0  35368-3 0  9991
2 57172  97.5366  28.3443 0015170  94.0987 266.1981 15.17899590133739
CubeBel-2 (EU11S)
1 57175U 23091K   25333.84997404  .00013890  00000-0  58324-3 0  9997
2 57175  97.5364  30.7459 0012414  96.9529 263.3120 15.23502467133897
SONATE-2
1 59112U 24043Q   25333.82536784  .00026749  00000-0  58575-3 0  9991
2 59112  97.5320 109.6046 0008947 209.0140 151.0612 15.44053800 96984
MO-122
1 60209U 24125G   25333.58146834  .00033860  00000-0  71359-3 0  9994
2 60209  97.2540 183.9537 0013498 230.2013 129.8048 15.45081554 78575
GRBBeta
1 60237U 24128C   25333.72603411  .00004219  00000-0  30395-3 0  9994
2 60237  61.9894 195.0748 0056764  94.0545 266.7038 15.04558298 76233
Curium One
1 60242U 24128H   25333.80533480  .00008553  00000-0  53873-3 0  9998
2 60242  61.9786 189.9757 0056426  91.1331 269.6228 15.08531232 76334
ROBUSTA-3A
1 60243U 24128J   25333.80322731  .00007597  00000-0  48816-3 0  9992
2 60243  61.9863 191.4601 0056442  88.5205 272.2353 15.07929238 76318
CatSat
1 60246U 24125J   25333.54793972  .00038935  00000-0  98112-3 0  9996
2 60246  97.2343 181.0850 0033805 192.6367 167.4035 15.39185143 76496
HYPERVIEW-1G (RS66S)
1 61772U 24199AP  25333.87151806  .00043685  00000-0  88085-3 0  9998
2 61772  97.3228 203.1574 0008732 296.3962  63.6390 15.46382568103622
AO-123
1 61781U 24199AY  25333.86843990  .00010244  00000-0  33789-3 0  9995
2 61781  97.3264 199.4617 0013473 307.6308  52.3710 15.31537289103374
ZIMSAT 2
1 61783U 24199BA  25333.85699271  .00166733  00000-0  15292-2 0  9990
2 61783  97.3122 206.2362 0003686 292.6150  67.4721 15.67214492106982
HADES-R (SO-124)
1 62690U 25009CK  25333.19944709  .00133330  00000-0  20517-2 0  9998
2 62690  97.3898  55.3510 0002394 222.9176 137.1891 15.53742698 48670
HYDRA-T
1 62692U 25009CM  25333.19134375  .00145286  00000-0  21280-2 0  9991
2 62692  97.3892  55.5133 0002220 228.6852 131.4211 15.55061219 48680
JINJUSat 1B
1 63210U 25052A   25333.67410970  .00017356  00000-0  67544-3 0  9997
2 63210  97.4203 225.9164 0006125  75.2756 284.9160 15.26056433 39595
NUSHSAT 1
1 63211U 25052B   25333.67798687  .00019292  00000-0  72915-3 0  9991
2 63211  97.4187 226.0253 0006089  77.5634 282.6286 15.27005644 39602
TEVEL2-4
1 63213U 25052D   25333.67331507  .00018429  00000-0  71003-3 0  9995
2 63213  97.4110 225.5992 0005144  88.1978 271.9849 15.26383036 39591
TEVEL2-5
1 63214U 25052E   25333.67816391  .00018045  00000-0  69672-3 0  9998
2 63214  97.4106 225.5931 0005158  88.2972 271.8857 15.26315170 39592
TEVEL2-6
1 63215U 25052F   25333.68506579  .00018037  00000-0  69741-3 0  9992
2 63215  97.4109 225.5887 0005269  88.5374 271.6468 15.26268194 39597
TEVEL2-1
1 63217U 25052H   25333.65944044  .00018610  00000-0  72627-3 0  9998
2 63217  97.4084 225.3850 0005140  97.6300 262.5522 15.25952522 39580
TEVEL2-3
1 63218U 25052J   25333.65882017  .00018590  00000-0  72505-3 0  9992
2 63218  97.4084 225.3893 0005170  98.5583 261.6241 15.25971688 39586
TEVEL2-2
1 63219U 25052K   25333.66022042  .00018229  00000-0  71149-3 0  9990
2 63219  97.4081 225.3862 0005181  98.3117 261.8709 15.25952606 39583
TEVEL2-9
1 63237U 25052AD  25333.67620433  .00016628  00000-0  67781-3 0  9997
2 63237  97.4147 225.1268 0008679 117.2801 242.9321 15.24493838 39553
TEVEL2-7
1 63238U 25052AE  25333.68887117  .00016325  00000-0  66831-3 0  9992
2 63238  97.4147 225.1159 0008831 117.2091 243.0047 15.24354227 39559
TEVEL2-8
1 63239U 25052AF  25333.69428372  .00016342  00000-0  66953-3 0  9992
2 63239  97.4151 225.1066 0008836 117.3548 242.8590 15.24327018 39553
HYDRA-W
1 63490U 25052BL  25333.64252514  .00062326  00000-0  16051-2 0  9995
2 63490  97.4076 227.2590 0011128 104.4644 255.7837 15.38941731 39708
HADES-ICM (SO-125)
1 63492U 25052BN  25333.68698440  .00056467  00000-0  15367-2 0  9991
2 63492  97.4084 227.0703 0011061 108.6285 251.6161 15.37265505 39696
Dragonfly
1 65729U 98067XH  25333.81222992  .00121835  00000-0  11002-2 0  9996
2 65729  51.6262 201.7143 0006372 200.0687 160.0059 15.67214415 11135
RSP-03
1 65732U 98067XL  25333.59852946  .00103913  00000-0  10343-2 0  9997
2 65732  51.6270 203.2919 0006799 175.0951 185.0112 15.64859727 11106
GHS-01
1 65733U 98067XM  25333.01834124  .00152819  00000-0  12890-2 0  9991
2 65733  51.6287 205.4181 0006848 194.8011 165.2786 15.68769203 11022
BOTAN
1 65942U 98067XP  25333.08330911  .00089783  00000-0  11006-2 0  9992
2 65942  51.6294 208.1026 0004672 152.2656 207.8587 15.59576719  7739
CEVROSAT1
1 98526U 25248E   25313.13142326  .00000000  00000-0  19360-3 0    02
2 98526  45.4084 218.4764 0001315 254.8982 242.1062 15.17981583    02
